1363737625154,0.792636
1363737685154,0.794396
1363737745154,0.796990
1363737805154,0.790411
1363737865154,0.796291
1363737925154,0.795269
1363737985154,0.793692
1363738045154,0.789367
1363738105154,0.791448
1363738165154,0.788606
1363738225154,0.799008
1363738285154,0.795393
1363738345154,0.792549
1363738405154,0.803545
1363738465154,0.796957
1363738525154,0.791239
1363738585154,0.796642
1363738645154,0.795255
1363738705154,0.794738
1363738765154,0.793295
1363738825154,0.796422
1363738885154,0.791490
1363738945154,0.778279
1363739005154,0.788843
1363739065154,0.787895
1363739125154,0.791353
1363739185154,0.788093
1363739245154,0.798345
1363739305154,0.795631
1363739365154,0.793623
1363739425154,0.789751
1363739485154,0.792888
1363739545154,0.795973
1363739605154,0.793646
1363739665154,0.789360
1363739725154,0.792482
1363739785154,0.791112
1363739845154,0.790059
1363739905154,0.793672
1363739965154,0.791625
1363740025154,0.793430
1363740085154,0.791483
1363740145154,0.788474
1363740205154,0.788066
1363740265154,0.792402
1363740325154,0.798926
1363740385154,0.799141
1363740445154,0.790156
1363740505154,0.793741
1363740565154,0.802360
1363740625154,0.797815
1363740685154,0.809421
1363740745154,0.808126
1363740805154,0.819779
1363740865154,0.825405
1363740925154,0.829399
1363740985154,0.838563
1363741045154,0.829773
1363741105154,0.842995
1363741165154,0.847976
1363741225166,0.853396
1363741285166,0.849768
1363741345166,0.861541
1363741405166,0.862326
1363741465166,0.872445
1363741525166,0.873755
1363741585166,0.870728
1363741645166,0.874289
1363741705166,0.874643
1363741765166,0.877755
1363741825166,0.879324
1363741885166,0.879601
1363741945166,0.885977
1363742005166,0.881547
1363742065166,0.881529
1363742125166,0.891218
1363742185166,0.890347
1363742245166,0.894859
1363742305166,0.904587
1363742365166,0.897071
1363742425166,0.905601
1363742485166,0.908756
1363742545166,0.907126
1363742605166,0.909507
1363742665166,0.913671
1363742725166,0.915024
1363742785166,0.914718
1363742845166,0.911569
1363742905166,0.907430
1363742965166,0.914079
1363743025166,0.909906
1363743085166,0.908133
1363743145166,0.913836
1363743205166,0.905468
1363743265166,0.910931
1363743325166,0.907149
1363743385166,0.898073
1363743445166,0.907134
1363743505166,0.899086
1363743565166,0.902561
1363743625166,0.894560
1363743685166,0.894274
1363743745166,0.904299
1363743805166,0.896181
1363743865166,0.890513
1363743925166,0.892244
1363743985166,0.890094
1363744045166,0.879326
1363744105166,0.884252
1363744165166,0.880256
1363744225166,0.878565
1363744285166,0.878468
1363744345166,0.874429
1363744405166,0.876769
1363744465166,0.879331
1363744525166,0.874145
1363744585166,0.872664
1363744645166,0.869623
1363744705166,0.869171
1363744765166,0.875975
1363744825178,0.866806
1363744885178,0.862725
1363744945178,0.862617
1363745005178,0.864825
1363745065178,0.862373
1363745125178,0.860518
1363745185178,0.863684
1363745245178,0.865638
1363745305178,0.866641
1363745365178,0.858301
1363745425178,0.855237
1363745485178,0.858119
1363745545178,0.861244
1363745605178,0.851465
1363745665178,0.858687
1363745725178,0.854049
1363745785178,0.853641
1363745845178,0.852031
1363745905178,0.848905
1363745965178,0.854166
1363746025178,0.857551
1363746085178,0.850967
1363746145178,0.845569
1363746205178,0.855211
1363746265178,0.843467
1363746325178,0.845171
1363746385178,0.842569
1363746445178,0.848260
1363746505178,0.847316
1363746565178,0.848963
1363746625178,0.846617
1363746685178,0.842684
1363746745178,0.852757
1363746805178,0.849445
1363746865178,0.849475
1363746925178,0.854727
1363746985178,0.857537
1363747045178,0.849115
1363747105178,0.853159
1363747165178,0.846184
1363747225178,0.851792
1363747285178,0.856966
1363747345178,0.849881
1363747405178,0.849604
1363747465178,0.846042
1363747525178,0.848901
1363747585178,0.850237
1363747645178,0.842516
1363747705178,0.842384
1363747765178,0.847094
1363747825178,0.844141
1363747885178,0.844968
1363747945178,0.846014
1363748005178,0.836770
1363748065178,0.845746
1363748125178,0.833177
1363748185178,0.835478
1363748245178,0.839900
1363748305178,0.829202
1363748365178,0.834092
1363748425189,0.839189
1363748485189,0.832028
1363748545189,0.830300
1363748605189,0.831405
1363748665189,0.833879
1363748725189,0.834386
1363748785189,0.834403
1363748845189,0.829928
1363748905189,0.830922
1363748965189,0.834163
1363749025189,0.836488
1363749085189,0.828198
1363749145189,0.821721
1363749205189,0.827105
1363749265189,0.872365
1363749325189,0.833994
1363749385189,0.828160
1363749445189,0.828820
1363749505189,0.828962
1363749565189,0.828490
1363749625189,0.828518
1363749685189,0.824943
1363749745189,0.826791
1363749805189,0.832477
1363749865189,0.825358
1363749925189,0.827059
1363749985189,0.837192
1363750045189,0.838677
1363750105189,0.830607
1363750165189,0.827640
1363750225189,0.824334
1363750285189,0.831722
1363750345189,0.829474
1363750405189,0.828458
1363750465189,0.834156
1363750525189,0.826113
1363750585189,0.826551
1363750645189,0.826938
1363750705189,0.820412
1363750765189,0.823540
1363750825189,0.830401
1363750885189,0.826868
1363750945189,0.828860
1363751005189,0.823035
1363751065189,0.822154
1363751125189,0.825341
1363751185189,0.815043
1363751245189,0.818690
1363751305189,0.819957
1363751365189,0.824511
1363751425189,0.815067
1363751485189,0.820285
1363751545189,0.817530
1363751605189,0.815195
1363751665189,0.821657
1363751725189,0.813856
1363751785189,0.819261
1363751845189,0.819778
1363751905189,0.819753
1363751965189,0.815012
1363752025201,0.817009
1363752085201,0.815887
1363752145201,0.811223
1363752205201,0.813097
1363752265201,0.814861
1363752325201,0.818442
1363752385201,0.812489
1363752445201,0.813080
1363752505201,0.809278
1363752565201,0.813954
1363752625201,0.809623
1363752685201,0.809300
1363752745201,0.808898
1363752805201,0.811063
1363752865201,0.816733
1363752925201,0.805509
1363752985201,0.815986
1363753045201,0.816015
1363753105201,0.811258
1363753165201,0.810878
1363753225201,0.814167
1363753285201,0.813248
1363753345201,0.815510
1363753405201,0.816530
1363753465201,0.810115
1363753525201,0.812800
1363753585201,0.810946
1363753645201,0.813586
1363753705201,0.819432
1363753765201,0.810335
1363753825201,0.810109
1363753885201,0.812339
1363753945201,0.814663
1363754005201,0.811696
1363754065201,0.812646
1363754125201,0.815975
1363754185201,0.815674
1363754245201,0.813433
1363754305201,0.813705
1363754365201,0.815610
1363754425201,0.821539
1363754485201,0.814678
1363754545201,0.816004
1363754605201,0.819057
1363754665201,0.811943
1363754725201,0.819509
1363754785201,0.817545
1363754845201,0.810976
1363754905201,0.812158
1363754965201,0.810773
1363755025201,0.808864
1363755085201,0.818635
1363755145201,0.817488
1363755205201,0.805511
1363755265201,0.814437
1363755325201,0.807074
1363755385201,0.811911
1363755445201,0.811340
1363755505201,0.815512
1363755565201,0.815540
1363755625213,0.807194
1363755685213,0.812504
1363755745213,0.813058
1363755805213,0.811269
1363755865213,0.815522
1363755925213,0.815214
1363755985213,0.818299
1363756045213,0.821771
1363756105213,0.825818
1363756165213,0.813033
1363756225213,0.816138
1363756285213,0.814557
1363756825213,0.811653
1363756885213,0.820755
1363756945213,0.825517
1363757005213,0.820625
1363757065213,0.825659
1363757125213,0.826042
1363757185213,0.832873
1363757245213,0.827883
1363757305213,0.829916
1363757365213,0.835394
1363757425213,0.828888
1363757485213,0.835326
1363757545213,0.828823
1363757605213,0.827570
1363757665213,0.835452
1363757725213,0.828621
1363757785213,0.827444
1363757845213,0.827910
1363757905213,0.828070
1363757965213,0.836116
1363758025213,0.831635
1363758085213,0.827419
1363758145213,0.838263
1363758205213,0.832497
1363758265213,0.831281
1363758325213,0.837459
1363758385213,0.835153
1363758445213,0.833801
1363758505213,0.839276
1363758565213,0.826203
1363758625213,0.830297
1363758685213,0.833469
1363758745213,0.830670
1363758805213,0.822545
1363758865213,0.826620
1363758925213,0.829722
1363758985213,0.827974
1363759045213,0.830719
1363759105213,0.826026
1363759165213,0.832130
1363759225224,0.835712
1363759285224,0.835239
1363759345224,0.821523
1363759405224,0.821347
1363759465224,0.829391
1363759525224,0.822285
1363759585224,0.832698
1363759645224,0.821579
1363759705224,0.824469
1363759765224,0.816433
1363759825224,0.822221
1363759885224,0.824422
1363759945224,0.832148
1363760005224,0.842038
1363760065224,0.842040
1363760125224,0.851885
1363760185224,0.855749
1363760245224,0.863808
1363760305224,0.860474
1363760365224,0.852533
1363772965257,0.815607
1363773025257,0.815410
1363773085257,0.808563
1363773145257,0.815795
1363773205257,0.812950
1363773265257,0.807770
1363773325257,0.809558
1363773385257,0.805771
1363773445257,0.800732
1363773505257,0.802463
1363773565257,0.800196
1363773625268,0.809071
1363773685268,0.802686
1363773745268,0.810283
1363773805268,0.809479
1363773865268,0.809136
1363773925268,0.816502
1363773985268,0.812323
1363774045268,0.812210
1363774105268,0.813050
1363774165268,0.817293
1363774225268,0.815035
1363774285268,0.825556
1363774345268,0.815750
1363774405268,0.814096
1363774465268,0.820842
1363774525268,0.822387
1363774585268,0.821060
1363774645268,0.827160
1363774705268,0.824152
1363774765268,0.824186
1363774825268,0.818032
1363774885268,0.807307
1363774945268,0.812694
1363775005268,0.815889
1363775065268,0.810006
1363775125268,0.817741
1363775185268,0.816254
1363775245268,0.813082
1363775305268,0.814379
1363775365268,0.805379
1363775425268,0.803511
1363775485268,0.808674
1363775545268,0.810000
1363775605268,0.806862
1363775665268,0.809108
1363775725268,0.808816
1363775785268,0.812594
1363775845268,0.816045
1363775905268,0.815932
1363775965268,0.807481
1363776025268,0.806414
1363776085268,0.807990
1363776145268,0.805048
1363776205268,0.804435
1363776265268,0.798542
1363776325268,0.804468
1363776385268,0.802051
1363776445268,0.800946
1363776505268,0.799237
1363776565268,0.798077
1363776625268,0.798764
1363776685268,0.805331
1363776745268,0.806938
1363776805268,0.793903
1363776865268,0.803304
1363776925268,0.790888
1363776985268,0.797262
1363777045268,0.796902
1363777105268,0.798015
1363777165268,0.804982
1363777225280,0.796487
1363777285280,0.804750
1363777345280,0.797167
1363777405280,0.801581
1363777465280,0.802133
1363777525280,0.802686
1363777585280,0.800957
1363777645280,0.803800
1363777705280,0.799184
1363777765280,0.799986
1363777825280,0.805532
1363777885280,0.803157
1363777945280,0.807266
1363778005280,0.800229
1363778065280,0.802187
1363778125280,0.797650
1363778185280,0.799916
1363778245280,0.802571
1363778305280,0.804754
1363778365280,0.800900
1363778425280,0.797964
1363778485280,0.802645
1363778545280,0.792359
1363778605280,0.804224
1363778665280,0.803248
1363778725280,0.804383
1363778785280,0.794621
1363778845280,0.809461
1363778905280,0.807761
1363778965280,0.799982
1363779025280,0.799778
1363779085280,0.801430
1363779145280,0.798752
1363779205280,0.803531
1363779265280,0.804449
1363779325280,0.798266
1363779385280,0.801617
1363779445280,0.798398
1363779505280,0.803433
1363779565280,0.802767
1363779625280,0.809166
1363779685280,0.808963
1363779745280,0.807930
1363779805280,0.811681
1363779865280,0.816559
1363779925280,0.811596
1363779985280,0.804039
1363780045280,0.809890
1363780105280,0.806021
1363780165280,0.813993
1363780225280,0.809185
1363780285280,0.813227
1363780345280,0.807798
1363780405280,0.806356
1363780465280,0.808970
1363780525280,0.798989
1363780585280,0.801842
1363780645280,0.805067
1363780705280,0.799024
1363780765280,0.810292
1363780825292,0.804506
1363780885292,0.804034
1363780945292,0.804814
1363781005292,0.801179
1363781065292,0.802510
1363781125292,0.808212
1363781185292,0.803711
1363781245292,0.810664
1363781305292,0.804470
1363781365292,0.807304
1363781425292,0.803091
1363781485292,0.805578
1363781545292,0.804135
1363781605292,0.809705
1363781665292,0.814138
1363781725292,0.808340
1363781785292,0.807432
1363781845292,0.811739
1363781905292,0.811071
1363781965292,0.805485
1363782025292,0.809646
1363782085292,0.812856
1363782145292,0.814851
1363782205292,0.815665
1363782265292,0.809661
1363782325292,0.815823
1363782385292,0.803008
1363782445292,0.815493
1363782505292,0.813913
1363782565292,0.804948
1363782625292,0.804379
1363782685292,0.807024
1363782745292,0.801118
1363782805292,0.813365
1363782865292,0.806970
1363782925292,0.810464
1363782985292,0.804219
1363783045292,0.807863
1363783105292,0.808010
1363783165292,0.810832
1363783225292,0.803025
1363783285292,0.801413
1363783345292,0.805634
1363783405292,0.813242
1363783465292,0.807193
1363783525292,0.802917
1363783585292,0.810537
1363783645292,0.805363
1363783705292,0.815666
1363783765292,0.811116
1363783825292,0.803549
1363783885292,0.802618
1363783945292,0.806073
1363784005292,0.811563
1363784065292,0.806807
1363784125292,0.808744
1363784185292,0.808314
1363784245292,0.804526
1363784305292,0.811746
1363784365292,0.809184
1363784425304,0.811305
1363784485304,0.807724
1363784545304,0.812991
1363784605304,0.805262
1363784665304,0.809100
1363784725304,0.809656
1363784785304,0.808059
1363784845304,0.801172
1363784905304,0.808461
1363784965304,0.799382
1363785025304,0.805991
1363785085304,0.805395
1363785145304,0.809830
1363785205304,0.799601
1363785265304,0.809922
1363785325304,0.806116
1363785385304,0.805123
1363785445304,0.804506
1363785505304,0.807326
1363785565304,0.800351
1363785625304,0.808723
1363785685304,0.803724
1363785745304,0.806921
1363785805304,0.811673
1363785865304,0.805518
1363785925304,0.804176
1363785985304,0.811908
1363786045304,0.804437
1363786105304,0.811299
1363786165304,0.819939
1363786225304,0.803305
1363786285304,0.809843
1363786345304,0.809101
1363786405304,0.812403
1363786465304,0.813344
1363786525304,0.809057
1363786585304,0.810871
1363786645304,0.806503
1363786705304,0.811059
1363786765304,0.820652
1363786825304,0.820458
1363786885304,0.814294
1363786945304,0.815890
1363787005304,0.815513
1363787065304,0.810745
1363787125304,0.811925
1363787185304,0.817512
1363787245304,0.808833
1363787305304,0.816764
1363787365304,0.808460
1363787425304,0.821252
1363787485304,0.811627
1363787545304,0.814953
1363787605304,0.804134
1363787665304,0.810627
1363787725304,0.812379
1363787785304,0.821850
1363787845304,0.806065
1363787905304,0.818513
1363787965304,0.813473
1363788025315,0.818984
1363788085315,0.817244
1363788145315,0.808403
1363788205316,0.816493
1363788265316,0.818142
1363788325316,0.818973
1363788385316,0.815918
1363788445316,0.821385
1363788505316,0.817707
1363788565315,0.817393
1363788625315,0.822123
1363788685315,0.813922
1363788745315,0.807894
1363788805315,0.816386
1363788865315,0.815086
1363788925315,0.813806
1363788985315,0.823225
1363789045315,0.815451
1363789105315,0.809500
1363789165315,0.811590
1363789225315,0.812254
1363789285315,0.811439
1363789345315,0.818220
1363789405315,0.813701
1363789465315,0.822197
1363789525315,0.816704
1363789585316,0.816893
1363789645316,0.818165
1363789705316,0.819263
1363789765316,0.818100
1363789825316,0.811787
1363789885315,0.814149
1363789945315,0.816634
1363790005315,0.814525
1363790065315,0.815732
1363790125315,0.820485
1363790185315,0.816642
1363790245315,0.807732
1363790305315,0.810214
1363790365315,0.809308
1363790425315,0.809172
1363790485315,0.812481
1363790545315,0.809012
1363790605315,0.816938
1363790665315,0.810731
1363790725315,0.812385
1363790785315,0.812046
1363790845315,0.812716
1363790905316,0.808146
1363790965316,0.805675
1363791025316,0.804273
1363791085316,0.814418
1363791145316,0.811770
1363791205316,0.811667
1363791265315,0.809088
1363791325315,0.809893
1363791385315,0.806250
1363791445315,0.805638
1363791505315,0.810669
1363791565315,0.808775
1363791625327,0.809599
1363791685327,0.808762
1363791745327,0.803707
1363791805327,0.804632
1363791865327,0.810340
1363791925327,0.811161
1363791985327,0.806811
1363792045327,0.806123
1363792105327,0.808185
1363792165327,0.809105
1363792225327,0.804985
1363792285327,0.808795
1363792345327,0.805440
1363792405327,0.809541
1363792465327,0.807808
1363792525327,0.801606
1363792585327,0.808067
1363792645327,0.803313
1363792705327,0.808206
1363792765327,0.807714
1363792825327,0.818117
1363792885327,0.821607
1363792945327,0.805836
1363793005327,0.814258
1363793065327,0.815981
1363793125327,0.812825
1363793185327,0.812198
1363793245327,0.807760
1363793305327,0.817656
1363793365327,0.808727
1363793425327,0.801637
1363793485327,0.819133
1363793545327,0.813426
1363793605327,0.812856
1363793665327,0.810938
1363793725327,0.812813
1363793785327,0.805607
1363793845327,0.817830
1363793905327,0.811793
1363793965327,0.813469
1363794025327,0.809333
1363794085327,0.810127
1363794145327,0.807204
1363794205327,0.816164
1363794265327,0.807353
1363794325327,0.813515
1363794385327,0.812565
1363794445327,0.815929
1363794505327,0.813618
1363794565327,0.813351
1363794625327,0.809654
1363794685327,0.814758
1363794745327,0.811876
1363794805327,0.814084
1363794865327,0.816862
1363794925327,0.819706
1363794985327,0.806512
1363795045327,0.812611
1363795105327,0.812186
1363795165327,0.809381
1363795225339,0.811005
1363795285339,0.812858
1363795345339,0.810600
1363795405339,0.817273
1363795465339,0.806922
1363795525339,0.807774
1363795585339,0.811880
1363795645339,0.813295
1363795705339,0.818169
1363795765339,0.810668
1363795825339,0.804672
1363795885339,0.815638
1363795945339,0.812906
1363796005339,0.813731
1363796065339,0.816998
1363796125339,0.806688
1363796185339,0.809415
1363796245339,0.804745
1363796305339,0.813742
1363796365339,0.808978
1363796425339,0.809178
1363796485339,0.815399
1363796545339,0.810685
1363796605339,0.810828
1363796665339,0.814139
1363796725339,0.816864
1363796785339,0.800823
1363796845339,0.813518
1363796905339,0.811294
1363796965339,0.813979
1363797025339,0.810168
1363797085339,0.810527
1363797145339,0.811678
1363797205339,0.804006
1363797265339,0.811650
1363797325339,0.811716
1363797385339,0.808432
1363797445339,0.814378
1363797505339,0.813673
1363797565339,0.801301
1363797625339,0.811707
1363797685339,0.814336
1363797745339,0.807158
1363797805339,0.800221
1363797865339,0.815952
1363797925339,0.815585
1363797985339,0.814662
1363798045339,0.814295
1363798105339,0.815319
1363798165339,0.818576
1363798225339,0.810149
1363798285339,0.816747
1363798345339,0.811800
1363798405339,0.812570
1363798465339,0.812335
1363798525339,0.814901
1363798585339,0.818195
1363798645339,0.812565
1363798705339,0.807523
1363798765339,0.809694
1363798825350,0.808238
1363798885350,0.807329
1363798945350,0.803284
1363799005350,0.810996
1363799065350,0.814925
1363799125350,0.804200
1363799185350,0.812500
1363799245350,0.812675
1363799305350,0.816480
1363799365350,0.808282
1363799425350,0.820215
1363799485350,0.811277
1363799545350,0.824311
1363799605350,0.817433
1363799665350,0.818496
1363799725350,0.821995
1363799785350,0.819942
1363799845350,0.817825
1363799905350,0.823541
1363799965350,0.821171
1363800025350,0.819107
1363800085350,0.816336
1363800145350,0.814657
1363800205350,0.819764
1363800265350,0.811215
1363800325350,0.814270
1363800385350,0.819194
1363800445350,0.807232
1363800505350,0.810426
1363800565350,0.813438
1363800625350,0.814812
1363800685350,0.810670
1363800745350,0.821520
1363800805350,0.811845
1363800865350,0.817747
1363800925350,0.816205
1363800985350,0.814138
1363801045350,0.811386
1363801105350,0.811417
1363801165350,0.813230
1363801225350,0.810193
1363801285350,0.807531
1363801345350,0.807582
1363801405350,0.804751
1363801465350,0.813154
1363801525350,0.805218
1363801585350,0.807092
1363801645350,0.813993
1363801705350,0.815341
1363801765350,0.814223
1363801825350,0.807781
1363801885350,0.814604
1363801945350,0.820577
1363802005350,0.818181
1363802065350,0.809526
1363802125350,0.817523
1363802185350,0.817130
1363802245350,0.822599
1363802305350,0.821723
1363802365350,0.817492
1363802425362,0.823727
1363802485362,0.814457
1363802545362,0.823675
1363802605362,0.816887
1363802665362,0.821537
1363802725362,0.823994
1363802785362,0.820672
1363802845362,0.815433
1363802905362,0.823648
1363802965362,0.822778
1363803025362,0.838238
1363803085362,0.824306
1363803145362,0.818004
1363803205362,0.821097
1363803265362,0.823944
1363803325362,0.817881
1363803385362,0.817309
1363803445362,0.813465
1363803505362,0.811542
1363803565362,0.821890
1363803625362,0.808652
1363803685362,0.808523
1363803745362,0.812090
1363803805362,0.812554
1363803865362,0.817304
1363803925362,0.811690
1363803985362,0.812361
1363804045362,0.807621
1363804105362,0.818452
1363804165362,0.811490
1363804225362,0.808243
1363804285362,0.808625
1363804345362,0.810052
1363804405362,0.818885
1363804465362,0.816003
1363804525362,0.808499
1363804585362,0.804555
1363804645362,0.820913
1363804705362,0.803621
1363804765362,0.816320
1363804825362,0.817657
1363804885362,0.813848
1363804945362,0.818342
1363805005362,0.825104
1363805065362,0.821651
1363805125362,0.811655
1363805185362,0.810864
1363805245362,0.804387
1363805305362,0.805875
1363805365362,0.813514
1363805425362,0.813323
1363805485362,0.817111
1363805545362,0.810502
1363805605362,0.803964
1363805665362,0.814447
1363805725362,0.813470
1363805785362,0.804171
1363805845362,0.818469
1363805905362,0.814337
1363805965362,0.803270
1363806025373,0.805008
1363806085373,0.810908
1363806145373,0.810814
1363806205373,0.809138
1363806265373,0.806070
1363806325373,0.811271
1363806385373,0.813473
1363806445373,0.809701
1363806505373,0.804869
1363806565373,0.812789
1363806625373,0.813070
1363806685373,0.810629
1363806745373,0.812341
1363806805373,0.811985
1363806865373,0.803255
1363806925373,0.804763
1363806985373,0.820206
1363807045373,0.808627
1363807105373,0.807915
1363807165373,0.809617
1363807225373,0.808173
1363807285373,0.810600
1363807345373,0.812793
1363807405373,0.809081
1363807465373,0.812103
1363807525373,0.809650
1363807585373,0.808498
1363807645373,0.805655
1363807705373,0.808664
1363807765373,0.812005
1363807825373,0.815872
1363807885373,0.821669
1363807945373,0.827196
1363808005373,0.827254
1363808065373,0.823953
1363808125373,0.816985
1363808185373,0.819554
1363808245373,0.821621
1363808305373,0.817272
1363808365373,0.811327
1363808425373,0.816787
1363808485373,0.825207
1363808545373,0.820260
1363808605373,0.824199
1363808665373,0.826004
1363808725373,0.822072
1363808785373,0.825089
1363808845373,0.833123
1363808905373,0.825254
1363808965373,0.830761
1363809025373,0.825663
1363809085373,0.824662
1363809145373,0.824528
1363809205373,0.832425
1363809265373,0.830575
1363809325373,0.827577
1363809385373,0.828127
1363809445373,0.827535
1363809505373,0.823231
1363809565373,0.828173
1363809625384,0.826793
1363809685384,0.823802
1363809745384,0.832863
1363809805384,0.822005
1363809865384,0.821670
1363809925384,0.823857
1363809985384,0.830719
1363810045384,0.837006
1363810105384,0.832792
1363810165384,0.821010
1363810225384,0.825752
1363810285384,0.820818
1363810345384,0.823378
1363810405384,0.826848
1363810465384,0.814748
1363810525384,0.818607
1363810585384,0.830087
1363810645384,0.829813
1363810705384,0.823207
1363810765384,0.817695
1363810825384,0.820306
1363810885384,0.825552
1363810945384,0.818451
1363811005384,0.831326
1363811065384,0.821758
1363811125384,0.823308
1363811185384,0.819801
1363811245384,0.818694
1363811305384,0.822243
1363811365384,0.816474
1363811425384,0.809989
1363811485384,0.821875
1363811545384,0.813874
1363811605384,0.816790
1363811665384,0.810477
1363811725384,0.816199
1363811785384,0.812423
1363811845384,0.815214
1363811905384,0.813378
1363811965384,0.812655
1363812025384,0.819621
1363812085384,0.814517
1363812145384,0.803014
1363812205384,0.806397
1363812265384,0.812843
1363812325384,0.811664
1363812385384,0.809723
1363812445384,0.807116
1363812505384,0.814266
1363812565384,0.819011
1363812625384,0.801575
1363812685384,0.816845
1363812745384,0.813579
1363812805384,0.806083
1363812865384,0.812342
1363812925384,0.805893
1363812985384,0.805196
1363813045384,0.809242
1363813105384,0.803494
1363813165384,0.818392